Simultaneous Nadir Overpasses (SNOs) Predictions

Prediction of SNOs between AQUA and NOAA-19 Satellite Orbit:

Table of predicted SNOs for the next 14.0 days since TLE Epoch: 6/25/2022
Index Date (AQUA) Time (AQUA) Lat,Lon (AQUA) SZA (AQUA ) Date (NOAA-19) Time (NOAA-19) Lat,Lon (NOAA-19) SZA (NOAA-19 ) Distance(km) Time Diff (sec)
1 06/26/2022 00:15:36 77.45, 160.44 54.59 06/26/2022 00:14:25 77.38, 159.27 54.63 29.38 71
2 06/26/2022 01:05:04 -77.57, -32.41 125.27 06/26/2022 01:05:16 -77.57, -32.52 125.27 2.62 12
3 06/28/2022 06:38:22 77.56, 64.32 54.82 06/28/2022 06:38:15 77.57, 64.35 54.83 1.96 7
4 06/28/2022 07:27:56 -77.94,-129.72 124.70 06/28/2022 07:29:01 -77.96,-126.29 124.93 79.54 65
5 06/30/2022 12:11:38 -77.53, 161.11 125.09 06/30/2022 12:11:07 -77.54, 161.05 125.07 1.51 31
6 06/30/2022 13:01:06 77.59, -31.48 54.99 06/30/2022 13:02:09 77.60, -31.40 54.98 2.47 63
7 07/02/2022 17:44:55 77.51,-102.09 55.05 07/02/2022 17:44:06 77.51,-102.27 55.08 4.31 49
8 07/02/2022 18:34:22 -77.58, 65.27 124.87 07/02/2022 18:35:01 -77.58, 65.36 124.88 2.21 39
9 07/04/2022 23:18:11 -77.50, -5.38 124.77 07/04/2022 23:16:58 -77.50, -5.44 124.74 1.42 73
10 07/05/2022 00:07:39 77.56, 162.01 55.31 07/05/2022 00:07:59 77.57, 162.13 55.31 2.94 20
11 07/07/2022 05:40:54 -77.52,-101.13 124.51 07/07/2022 05:40:52 -77.54,-101.17 124.49 1.82 2



Historial Predications of SNOs between AQUA and NOAA-19
